Time,TemperatureF,DewpointF,PressureIn,WindDirection,WindDirectionDegrees,WindSpeedMPH,WindSpeedGustMPH,Humidity,HourlyPrecipIn,Conditions,Clouds,dailyrainin,SoftwareType,DateUTC
2013-03-21 00:00:00,33.1,18.7,30.54,ESE,112,1.0,2.0,55,0.00,,---,0.00,VWS V14.01,2013-03-21 05:00:00,
2013-03-21 00:10:00,32.8,18.4,30.54,ESE,112,0.0,2.0,55,0.00,,---,0.00,VWS V14.01,2013-03-21 05:10:00,
2013-03-21 00:20:00,32.8,18.8,30.53,ESE,112,0.0,1.0,56,0.00,,---,0.00,VWS V14.01,2013-03-21 05:20:00,
2013-03-21 00:30:00,32.7,18.8,30.53,ESE,112,0.0,3.0,56,0.00,,---,0.00,VWS V14.01,2013-03-21 05:30:00,
2013-03-21 00:40:00,32.7,19.6,30.53,ESE,112,1.0,3.0,58,0.00,,---,0.00,VWS V14.01,2013-03-21 05:40:00,
2013-03-21 00:50:00,32.8,20.1,30.52,ESE,112,1.0,3.0,59,0.00,,---,0.00,VWS V14.01,2013-03-21 05:50:00,
2013-03-21 01:00:00,32.8,20.1,30.52,ESE,112,0.0,2.0,59,0.00,,---,0.00,VWS V14.01,2013-03-21 06:00:00,
2013-03-21 01:10:00,32.8,20.1,30.52,ESE,112,1.0,3.0,59,0.00,,---,0.00,VWS V14.01,2013-03-21 06:10:00,
2013-03-21 01:20:00,32.9,20.2,30.50,East,90,3.0,5.0,59,0.00,,---,0.00,VWS V14.01,2013-03-21 06:20:00,
2013-03-21 01:30:00,33.2,20.0,30.50,East,90,2.0,5.0,58,0.00,,---,0.00,VWS V14.01,2013-03-21 06:30:00,
2013-03-21 01:40:00,33.2,19.6,30.50,East,90,1.0,4.0,57,0.00,,---,0.00,VWS V14.01,2013-03-21 06:40:00,
2013-03-21 01:50:00,33.2,18.8,30.50,East,90,2.0,6.0,55,0.00,,---,0.00,VWS V14.01,2013-03-21 06:50:00,
2013-03-21 02:00:00,33.2,18.8,30.49,East,90,2.0,4.0,55,0.00,,---,0.00,VWS V14.01,2013-03-21 07:00:00,
2013-03-21 02:10:00,33.1,18.7,30.49,ESE,112,2.0,5.0,55,0.00,,---,0.00,VWS V14.01,2013-03-21 07:10:00,
2013-03-21 02:20:00,32.9,18.1,30.50,East,90,2.0,4.0,54,0.00,,---,0.00,VWS V14.01,2013-03-21 07:20:00,
2013-03-21 02:30:00,32.7,18.3,30.49,East,90,2.0,4.0,55,0.00,,---,0.00,VWS V14.01,2013-03-21 07:30:00,
2013-03-21 02:40:00,32.4,18.9,30.49,East,90,3.0,5.0,57,0.00,,---,0.00,VWS V14.01,2013-03-21 07:40:00,
2013-03-21 02:50:00,32.1,19.0,30.48,ENE,68,4.0,7.0,58,0.00,,---,0.00,VWS V14.01,2013-03-21 07:50:00,
2013-03-21 03:00:00,31.8,18.7,30.47,ENE,68,4.0,6.0,58,0.00,,---,0.00,VWS V14.01,2013-03-21 08:00:00,
2013-03-21 03:10:00,31.6,18.9,30.47,ENE,68,5.0,7.0,59,0.00,,---,0.00,VWS V14.01,2013-03-21 08:10:00,
2013-03-21 03:20:00,31.5,18.4,30.45,East,90,5.0,9.0,58,0.00,,---,0.00,VWS V14.01,2013-03-21 08:20:00,
2013-03-21 03:30:00,31.3,18.6,30.46,East,90,4.0,5.0,59,0.00,,---,0.00,VWS V14.01,2013-03-21 08:30:00,
2013-03-21 03:40:00,31.0,18.4,30.46,ENE,68,4.0,6.0,59,0.00,,---,0.00,VWS V14.01,2013-03-21 08:40:00,
2013-03-21 03:50:00,31.0,18.4,30.45,ENE,68,4.0,6.0,59,0.00,,---,0.00,VWS V14.01,2013-03-21 08:50:00,
2013-03-21 04:00:00,30.9,18.7,30.44,ENE,68,5.0,9.0,60,0.00,,---,0.00,VWS V14.01,2013-03-21 09:00:00,
2013-03-21 04:10:00,30.7,18.9,30.44,ENE,68,4.0,6.0,61,0.00,,---,0.00,VWS V14.01,2013-03-21 09:10:00,
2013-03-21 04:20:00,30.9,19.0,30.44,ENE,68,4.0,7.0,61,0.00,,---,0.00,VWS V14.01,2013-03-21 09:20:00,
2013-03-21 04:30:00,31.0,19.1,30.44,East,90,3.0,6.0,61,0.00,,---,0.00,VWS V14.01,2013-03-21 09:30:00,
2013-03-21 04:40:00,31.2,19.0,30.44,ENE,68,3.0,5.0,60,0.00,,---,0.00,VWS V14.01,2013-03-21 09:40:00,
2013-03-21 04:50:00,31.3,19.0,30.44,ENE,68,3.0,6.0,60,0.00,,---,0.00,VWS V14.01,2013-03-21 09:50:00,
2013-03-21 05:00:00,31.6,18.9,30.44,ENE,68,4.0,7.0,59,0.00,,---,0.00,VWS V14.01,2013-03-21 10:00:00,
2013-03-21 05:10:00,31.9,19.2,30.44,East,90,4.0,6.0,59,0.00,,---,0.00,VWS V14.01,2013-03-21 10:10:00,
2013-03-21 05:20:00,32.2,19.1,30.44,East,90,4.0,6.0,58,0.00,,---,0.00,VWS V14.01,2013-03-21 10:20:00,
2013-03-21 05:30:00,32.5,19.4,30.43,East,90,4.0,6.0,58,0.00,,---,0.00,VWS V14.01,2013-03-21 10:30:00,
2013-03-21 05:40:00,32.4,19.3,30.43,ENE,68,3.0,5.0,58,0.00,,---,0.00,VWS V14.01,2013-03-21 10:40:00,
2013-03-21 05:50:00,32.4,19.3,30.43,ENE,68,4.0,7.0,58,0.00,,---,0.00,VWS V14.01,2013-03-21 10:50:00,
2013-03-21 06:00:00,32.2,19.1,30.44,ENE,68,5.0,9.0,58,0.00,,---,0.00,VWS V14.01,2013-03-21 11:00:00,
2013-03-21 06:10:00,32.2,19.1,30.44,ENE,68,5.0,9.0,58,0.00,,---,0.00,VWS V14.01,2013-03-21 11:10:00,
2013-03-21 06:20:00,32.4,19.3,30.44,ENE,68,7.0,10.0,58,0.00,,---,0.00,VWS V14.01,2013-03-21 11:20:00,
2013-03-21 06:30:00,32.7,19.6,30.43,ENE,68,6.0,10.0,58,0.00,,---,0.00,VWS V14.01,2013-03-21 11:30:00,
2013-03-21 06:40:00,32.8,19.3,30.43,ENE,68,6.0,10.0,57,0.00,,---,0.00,VWS V14.01,2013-03-21 11:40:00,
2013-03-21 06:50:00,33.1,19.1,30.44,ENE,68,9.0,13.0,56,0.00,,---,0.00,VWS V14.01,2013-03-21 11:50:00,
2013-03-21 07:00:00,33.4,18.1,30.43,East,90,8.0,13.0,53,0.00,,---,0.00,VWS V14.01,2013-03-21 12:00:00,
2013-03-21 07:10:00,33.7,17.5,30.43,East,90,8.0,14.0,51,0.00,,---,0.00,VWS V14.01,2013-03-21 12:10:00,
2013-03-21 07:20:00,34.0,16.4,30.44,East,90,10.0,16.0,48,0.00,,---,0.00,VWS V14.01,2013-03-21 12:20:00,
2013-03-21 07:30:00,34.1,16.0,30.43,East,90,10.0,17.0,47,0.00,,---,0.00,VWS V14.01,2013-03-21 12:30:00,
2013-03-21 07:40:00,34.3,15.7,30.43,East,90,10.0,15.0,46,0.00,,---,0.00,VWS V14.01,2013-03-21 12:40:00,
2013-03-21 07:50:00,34.4,15.8,30.43,East,90,9.0,16.0,46,0.00,,---,0.00,VWS V14.01,2013-03-21 12:50:00,
2013-03-21 08:00:00,34.6,16.0,30.43,East,90,9.0,13.0,46,0.00,,---,0.00,VWS V14.01,2013-03-21 13:00:00,
2013-03-21 08:10:00,34.7,16.0,30.43,East,90,10.0,15.0,46,0.00,,---,0.00,VWS V14.01,2013-03-21 13:10:00,
2013-03-21 08:20:00,35.0,16.3,30.44,East,90,9.0,14.0,46,0.00,,---,0.00,VWS V14.01,2013-03-21 13:20:00,
2013-03-21 08:30:00,35.5,15.8,30.43,East,90,9.0,16.0,44,0.00,,---,0.00,VWS V14.01,2013-03-21 13:30:00,
2013-03-21 08:40:00,36.0,15.1,30.43,East,90,8.0,13.0,42,0.00,,---,0.00,VWS V14.01,2013-03-21 13:40:00,
2013-03-21 08:50:00,36.5,13.9,30.42,East,90,9.0,16.0,39,0.00,,---,0.00,VWS V14.01,2013-03-21 13:50:00,
2013-03-21 09:00:00,37.2,13.9,30.42,East,90,9.0,17.0,38,0.00,,---,0.00,VWS V14.01,2013-03-21 14:00:00,
2013-03-21 09:10:00,37.8,13.9,30.42,East,90,9.0,18.0,37,0.00,,---,0.00,VWS V14.01,2013-03-21 14:10:00,
2013-03-21 09:20:00,38.3,13.1,30.42,East,90,7.0,14.0,35,0.00,,---,0.00,VWS V14.01,2013-03-21 14:20:00,
2013-03-21 09:30:00,39.6,12.9,30.42,East,90,8.0,16.0,33,0.00,,---,0.00,VWS V14.01,2013-03-21 14:30:00,
2013-03-21 09:40:00,40.9,11.1,30.42,East,90,8.0,18.0,29,0.00,,---,0.00,VWS V14.01,2013-03-21 14:40:00,
2013-03-21 09:50:00,40.9,10.3,30.42,East,90,11.0,20.0,28,0.00,,---,0.00,VWS V14.01,2013-03-21 14:50:00,
2013-03-21 10:00:00,41.5,10.0,30.41,East,90,10.0,17.0,27,0.00,,---,0.00,VWS V14.01,2013-03-21 15:00:00,
2013-03-21 10:10:00,42.1,9.7,30.41,East,90,10.0,16.0,26,0.00,,---,0.00,VWS V14.01,2013-03-21 15:10:00,
2013-03-21 10:20:00,43.1,12.2,30.40,East,90,8.0,16.0,28,0.00,,---,0.00,VWS V14.01,2013-03-21 15:20:00,
2013-03-21 10:30:00,43.2,9.8,30.39,East,90,8.0,15.0,25,0.00,,---,0.00,VWS V14.01,2013-03-21 15:30:00,
2013-03-21 10:40:00,43.8,11.2,30.39,East,90,9.0,15.0,26,0.00,,---,0.00,VWS V14.01,2013-03-21 15:40:00,
2013-03-21 10:50:00,43.6,11.0,30.39,East,90,10.0,18.0,26,0.00,,---,0.00,VWS V14.01,2013-03-21 15:50:00,
2013-03-21 11:00:00,44.5,11.8,30.39,East,90,6.0,13.0,26,0.00,,---,0.00,VWS V14.01,2013-03-21 16:00:00,
2013-03-21 11:10:00,44.6,11.0,30.39,ESE,112,6.0,13.0,25,0.00,,---,0.00,VWS V14.01,2013-03-21 16:10:00,
2013-03-21 11:20:00,44.9,11.2,30.40,ESE,112,5.0,10.0,25,0.00,,---,0.00,VWS V14.01,2013-03-21 16:20:00,
2013-03-21 11:30:00,44.9,11.2,30.39,SE,135,6.0,14.0,25,0.00,,---,0.00,VWS V14.01,2013-03-21 16:30:00,
2013-03-21 11:40:00,44.9,11.2,30.39,ESE,112,5.0,12.0,25,0.00,,---,0.00,VWS V14.01,2013-03-21 16:40:00,
2013-03-21 11:50:00,44.8,12.0,30.38,ESE,112,6.0,10.0,26,0.00,,---,0.00,VWS V14.01,2013-03-21 16:50:00,
2013-03-21 12:00:00,44.9,12.1,30.38,ESE,112,5.0,13.0,26,0.00,,---,0.00,VWS V14.01,2013-03-21 17:00:00,
2013-03-21 12:10:00,44.8,12.0,30.38,East,90,8.0,13.0,26,0.00,,---,0.00,VWS V14.01,2013-03-21 17:10:00,
2013-03-21 12:20:00,44.9,13.8,30.36,ESE,112,6.0,14.0,28,0.00,,---,0.00,VWS V14.01,2013-03-21 17:20:00,
2013-03-21 12:30:00,44.9,13.8,30.35,ESE,112,6.0,12.0,28,0.00,,---,0.00,VWS V14.01,2013-03-21 17:30:00,
2013-03-21 12:40:00,44.6,19.3,30.35,ESE,112,9.0,18.0,36,0.00,,---,0.00,VWS V14.01,2013-03-21 17:40:00,
2013-03-21 12:50:00,43.9,23.4,30.35,SSE,158,10.0,18.0,44,0.00,,---,0.00,VWS V14.01,2013-03-21 17:50:00,
2013-03-21 13:00:00,42.5,27.5,30.35,SSE,158,9.0,16.0,55,0.00,,---,0.00,VWS V14.01,2013-03-21 18:00:00,
2013-03-21 13:10:00,40.5,28.1,30.35,SE,135,9.0,15.0,61,0.00,,---,0.00,VWS V14.01,2013-03-21 18:10:00,
2013-03-21 13:20:00,39.2,28.8,30.36,ESE,112,6.0,12.0,66,0.00,,---,0.00,VWS V14.01,2013-03-21 18:20:00,
2013-03-21 13:30:00,38.8,29.5,30.35,SE,135,8.0,16.0,69,0.00,,---,0.00,VWS V14.01,2013-03-21 18:30:00,
2013-03-21 13:40:00,38.0,29.1,30.35,SE,135,10.0,19.0,70,0.00,,---,0.00,VWS V14.01,2013-03-21 18:40:00,
2013-03-21 13:50:00,37.2,29.4,30.35,ESE,112,8.0,17.0,73,0.01,,---,0.01,VWS V14.01,2013-03-21 18:50:00,
2013-03-21 14:00:00,36.6,29.8,30.34,ESE,112,8.0,17.0,76,0.02,,---,0.02,VWS V14.01,2013-03-21 19:00:00,
2013-03-21 14:10:00,36.3,30.1,30.34,ESE,112,8.0,15.0,78,0.02,,---,0.02,VWS V14.01,2013-03-21 19:10:00,
2013-03-21 14:20:00,35.5,30.0,30.33,ESE,112,9.0,16.0,80,0.02,,---,0.02,VWS V14.01,2013-03-21 19:20:00,
2013-03-21 14:30:00,34.7,29.8,30.32,ESE,112,7.0,16.0,82,0.02,,---,0.02,VWS V14.01,2013-03-21 19:30:00,
2013-03-21 14:40:00,34.3,30.0,30.32,East,90,8.0,16.0,84,0.02,,---,0.02,VWS V14.01,2013-03-21 19:40:00,
2013-03-21 14:50:00,34.3,30.3,30.29,ESE,112,10.0,17.0,85,0.03,,---,0.03,VWS V14.01,2013-03-21 19:50:00,
2013-03-21 15:00:00,34.3,30.6,30.28,ESE,112,10.0,17.0,86,0.04,,---,0.05,VWS V14.01,2013-03-21 20:00:00,
2013-03-21 15:10:00,34.3,30.8,30.28,East,90,10.0,18.0,87,0.04,,---,0.06,VWS V14.01,2013-03-21 20:10:00,
2013-03-21 15:20:00,34.6,31.1,30.28,East,90,10.0,18.0,87,0.06,,---,0.08,VWS V14.01,2013-03-21 20:20:00,
2013-03-21 15:30:00,35.0,31.8,30.27,East,90,7.0,15.0,88,0.07,,---,0.09,VWS V14.01,2013-03-21 20:30:00,
2013-03-21 15:40:00,35.3,32.1,30.27,East,90,8.0,14.0,88,0.08,,---,0.10,VWS V14.01,2013-03-21 20:40:00,
2013-03-21 15:50:00,35.5,32.6,30.26,East,90,9.0,15.0,89,0.09,,---,0.11,VWS V14.01,2013-03-21 20:50:00,
2013-03-21 16:00:00,35.6,32.7,30.25,East,90,7.0,13.0,89,0.08,,---,0.11,VWS V14.01,2013-03-21 21:00:00,
2013-03-21 16:10:00,35.6,32.7,30.25,East,90,7.0,13.0,89,0.07,,---,0.12,VWS V14.01,2013-03-21 21:10:00,
2013-03-21 16:20:00,35.6,32.7,30.25,ESE,112,7.0,13.0,89,0.06,,---,0.12,VWS V14.01,2013-03-21 21:20:00,
2013-03-21 16:30:00,35.0,31.8,30.27,East,90,7.0,15.0,88,0.07,,---,0.09,VWS V14.01,2013-03-21 21:30:00,
2013-03-21 16:40:00,35.9,33.0,30.24,ESE,119,6.0,7.0,89,0.05,,---,0.13,VWS V14.01,2013-03-21 21:40:00,
2013-03-21 16:50:00,35.9,33.0,30.25,East,93,5.0,6.0,89,0.02,,---,0.13,VWS V14.01,2013-03-21 21:50:00,
2013-03-21 16:55:00,35.8,32.9,30.25,East,91,7.0,13.0,89,0.03,,---,0.14,VWS V14.01,2013-03-21 21:55:00,
2013-03-21 17:00:00,35.6,32.7,30.24,East,91,10.0,12.0,89,0.05,,---,0.16,VWS V14.01,2013-03-21 22:00:00,
2013-03-21 17:05:00,35.6,32.7,30.24,East,82,10.0,13.0,89,0.06,,---,0.17,VWS V14.01,2013-03-21 22:05:00,
2013-03-21 17:10:00,35.6,32.7,30.24,ENE,78,9.0,10.0,89,0.06,,---,0.18,VWS V14.01,2013-03-21 22:10:00,
2013-03-21 17:15:00,35.8,32.9,30.23,East,86,10.0,13.0,89,0.06,,---,0.18,VWS V14.01,2013-03-21 22:15:00,
2013-03-21 17:20:00,35.8,33.2,30.23,East,99,6.0,10.0,90,0.06,,---,0.18,VWS V14.01,2013-03-21 22:20:00,
2013-03-21 17:25:00,35.9,33.3,30.23,East,90,6.0,10.0,90,0.06,,---,0.18,VWS V14.01,2013-03-21 22:25:00,
2013-03-21 17:30:00,35.9,33.0,30.23,ESE,117,5.0,10.0,89,0.05,,---,0.18,VWS V14.01,2013-03-21 22:30:00,
2013-03-21 17:35:00,35.9,33.0,30.23,ENE,65,12.0,14.0,89,0.05,,---,0.18,VWS V14.01,2013-03-21 22:35:00,
2013-03-21 17:40:00,35.9,33.3,30.23,East,99,6.0,9.0,90,0.05,,---,0.18,VWS V14.01,2013-03-21 22:40:00,
2013-03-21 17:45:00,36.0,33.4,30.23,East,98,10.0,12.0,90,0.05,,---,0.18,VWS V14.01,2013-03-21 22:45:00,
2013-03-21 17:50:00,36.2,33.6,30.23,East,82,8.0,14.0,90,0.05,,---,0.18,VWS V14.01,2013-03-21 22:50:00,
2013-03-21 17:55:00,36.3,33.7,30.23,ESE,103,7.0,14.0,90,0.05,,---,0.18,VWS V14.01,2013-03-21 22:55:00,
2013-03-21 18:00:00,36.3,33.7,30.23,SE,126,10.0,10.0,90,0.02,,---,0.18,VWS V14.01,2013-03-21 23:00:00,
2013-03-21 18:05:00,36.2,33.3,30.23,East,87,11.0,15.0,89,0.02,,---,0.18,VWS V14.01,2013-03-21 23:05:00,
2013-03-21 18:10:00,36.3,33.4,30.23,ESE,117,5.0,6.0,89,0.00,,---,0.18,VWS V14.01,2013-03-21 23:10:00,
2013-03-21 18:15:00,36.2,33.3,30.24,East,101,5.0,16.0,89,0.00,,---,0.18,VWS V14.01,2013-03-21 23:15:00,
2013-03-21 18:20:00,36.2,33.3,30.24,East,90,8.0,8.0,89,0.00,,---,0.18,VWS V14.01,2013-03-21 23:20:00,
2013-03-21 18:25:00,36.2,33.3,30.24,East,98,6.0,11.0,89,0.00,,---,0.18,VWS V14.01,2013-03-21 23:25:00,
2013-03-21 18:30:00,36.2,33.3,30.24,SE,130,9.0,9.0,89,0.00,,---,0.18,VWS V14.01,2013-03-21 23:30:00,
2013-03-21 18:35:00,36.2,33.3,30.24,ESE,117,5.0,11.0,89,0.00,,---,0.18,VWS V14.01,2013-03-21 23:35:00,
2013-03-21 18:40:00,36.2,33.3,30.24,ESE,115,5.0,9.0,89,0.00,,---,0.18,VWS V14.01,2013-03-21 23:40:00,
2013-03-21 18:45:00,36.3,33.4,30.24,East,88,6.0,12.0,89,0.00,,---,0.18,VWS V14.01,2013-03-21 23:45:00,
2013-03-21 18:50:00,36.3,33.4,30.24,ENE,67,9.0,9.0,89,0.00,,---,0.18,VWS V14.01,2013-03-21 23:50:00,
2013-03-21 18:55:00,36.3,33.4,30.24,East,101,4.0,10.0,89,0.00,,---,0.18,VWS V14.01,2013-03-21 23:55:00,
2013-03-21 19:00:00,36.2,33.3,30.25,East,100,4.0,5.0,89,0.00,,---,0.18,VWS V14.01,2013-03-22 00:00:00,
2013-03-21 19:05:00,36.2,33.3,30.25,ESE,109,6.0,11.0,89,0.00,,---,0.18,VWS V14.01,2013-03-22 00:05:00,
2013-03-21 19:10:00,36.0,33.1,30.25,ESE,107,7.0,11.0,89,0.00,,---,0.18,VWS V14.01,2013-03-22 00:10:00,
2013-03-21 19:15:00,36.0,33.1,30.24,East,95,5.0,13.0,89,0.00,,---,0.18,VWS V14.01,2013-03-22 00:15:00,
2013-03-21 19:20:00,36.0,33.1,30.24,SE,124,7.0,7.0,89,0.00,,---,0.18,VWS V14.01,2013-03-22 00:20:00,
2013-03-21 19:25:00,36.0,33.1,30.24,ESE,107,5.0,11.0,89,0.00,,---,0.18,VWS V14.01,2013-03-22 00:25:00,
2013-03-21 19:30:00,36.0,33.1,30.24,ESE,110,10.0,10.0,89,0.00,,---,0.18,VWS V14.01,2013-03-22 00:30:00,
2013-03-21 19:35:00,36.0,33.1,30.24,East,89,12.0,12.0,89,0.00,,---,0.18,VWS V14.01,2013-03-22 00:35:00,
2013-03-21 19:40:00,36.0,32.8,30.24,ENE,76,11.0,11.0,88,0.00,,---,0.18,VWS V14.01,2013-03-22 00:40:00,
2013-03-21 19:45:00,36.0,32.8,30.24,ENE,76,8.0,13.0,88,0.00,,---,0.18,VWS V14.01,2013-03-22 00:45:00,
2013-03-21 19:50:00,36.0,32.8,30.24,ESE,107,3.0,6.0,88,0.00,,---,0.18,VWS V14.01,2013-03-22 00:50:00,
2013-03-21 19:55:00,36.0,33.1,30.24,East,86,10.0,10.0,89,0.00,,---,0.18,VWS V14.01,2013-03-22 00:55:00,
2013-03-21 20:00:00,36.0,32.8,30.24,ENE,77,9.0,9.0,88,0.00,,---,0.18,VWS V14.01,2013-03-22 01:00:00,
2013-03-21 20:05:00,36.0,32.8,30.24,ESE,122,9.0,13.0,88,0.01,,---,0.19,VWS V14.01,2013-03-22 01:05:00,
2013-03-21 20:10:00,36.0,33.1,30.24,ENE,76,9.0,9.0,89,0.02,,---,0.20,VWS V14.01,2013-03-22 01:10:00,
2013-03-21 20:15:00,36.0,33.1,30.24,East,81,13.0,14.0,89,0.02,,---,0.20,VWS V14.01,2013-03-22 01:15:00,
2013-03-21 20:20:00,36.0,33.1,30.24,East,87,7.0,7.0,89,0.02,,---,0.20,VWS V14.01,2013-03-22 01:20:00,
2013-03-21 20:25:00,35.9,33.0,30.24,ENE,77,10.0,13.0,89,0.03,,---,0.21,VWS V14.01,2013-03-22 01:25:00,
2013-03-21 20:30:00,35.9,33.0,30.24,East,86,12.0,12.0,89,0.03,,---,0.21,VWS V14.01,2013-03-22 01:30:00,
2013-03-21 20:35:00,35.9,33.0,30.24,ENE,70,9.0,15.0,89,0.03,,---,0.21,VWS V14.01,2013-03-22 01:35:00,
2013-03-21 20:40:00,35.9,33.0,30.24,ESE,107,12.0,13.0,89,0.03,,---,0.21,VWS V14.01,2013-03-22 01:40:00,
2013-03-21 20:45:00,35.9,33.0,30.24,East,92,6.0,13.0,89,0.04,,---,0.22,VWS V14.01,2013-03-22 01:45:00,
2013-03-21 20:50:00,35.9,33.0,30.24,East,90,5.0,9.0,89,0.04,,---,0.22,VWS V14.01,2013-03-22 01:50:00,
2013-03-21 20:55:00,35.9,33.0,30.24,East,88,12.0,15.0,89,0.04,,---,0.22,VWS V14.01,2013-03-22 01:55:00,
2013-03-21 21:00:00,35.9,33.0,30.24,ESE,112,11.0,11.0,89,0.04,,---,0.22,VWS V14.01,2013-03-22 02:00:00,
2013-03-21 21:05:00,35.9,33.0,30.24,East,83,9.0,17.0,89,0.04,,---,0.22,VWS V14.01,2013-03-22 02:05:00,
2013-03-21 21:10:00,35.9,33.0,30.24,ESE,122,8.0,8.0,89,0.02,,---,0.22,VWS V14.01,2013-03-22 02:10:00,
2013-03-21 21:15:00,35.9,33.0,30.23,East,88,7.0,12.0,89,0.02,,---,0.22,VWS V14.01,2013-03-22 02:15:00,
2013-03-21 21:20:00,35.9,33.0,30.23,ESE,111,5.0,12.0,89,0.02,,---,0.22,VWS V14.01,2013-03-22 02:20:00,
2013-03-21 21:25:00,35.9,33.3,30.23,ESE,120,9.0,12.0,90,0.02,,---,0.22,VWS V14.01,2013-03-22 02:25:00,
2013-03-21 21:30:00,35.9,33.3,30.23,East,96,5.0,5.0,90,0.01,,---,0.22,VWS V14.01,2013-03-22 02:30:00,
2013-03-21 21:35:00,35.8,33.2,30.23,East,81,13.0,13.0,90,0.01,,---,0.22,VWS V14.01,2013-03-22 02:35:00,
2013-03-21 21:40:00,35.8,33.2,30.23,ESE,117,12.0,17.0,90,0.01,,---,0.22,VWS V14.01,2013-03-22 02:40:00,
2013-03-21 21:45:00,35.8,33.2,30.23,East,97,7.0,15.0,90,0.01,,---,0.22,VWS V14.01,2013-03-22 02:45:00,
2013-03-21 21:50:00,35.8,33.2,30.23,East,84,6.0,16.0,90,0.01,,---,0.22,VWS V14.01,2013-03-22 02:50:00,
2013-03-21 21:55:00,35.8,33.2,30.23,East,94,7.0,13.0,90,0.00,,---,0.22,VWS V14.01,2013-03-22 02:55:00,
2013-03-21 22:00:00,35.8,33.2,30.23,East,96,11.0,16.0,90,0.00,,---,0.22,VWS V14.01,2013-03-22 03:00:00,
2013-03-21 22:05:00,35.8,33.2,30.23,SE,124,5.0,13.0,90,0.00,,---,0.22,VWS V14.01,2013-03-22 03:05:00,
2013-03-21 22:10:00,35.8,33.2,30.23,East,90,7.0,13.0,90,0.01,,---,0.23,VWS V14.01,2013-03-22 03:10:00,
2013-03-21 22:15:00,35.8,33.2,30.23,East,82,4.0,11.0,90,0.01,,---,0.23,VWS V14.01,2013-03-22 03:15:00,
2013-03-21 22:20:00,35.8,33.2,30.23,ESE,120,6.0,13.0,90,0.01,,---,0.23,VWS V14.01,2013-03-22 03:20:00,
2013-03-21 22:25:00,35.9,33.3,30.23,East,82,6.0,12.0,90,0.01,,---,0.23,VWS V14.01,2013-03-22 03:25:00,
2013-03-21 22:30:00,35.8,33.2,30.24,ESE,105,5.0,12.0,90,0.01,,---,0.23,VWS V14.01,2013-03-22 03:30:00,
2013-03-21 22:35:00,35.8,33.2,30.24,ENE,72,6.0,12.0,90,0.02,,---,0.24,VWS V14.01,2013-03-22 03:35:00,
2013-03-21 22:40:00,35.8,33.2,30.24,ENE,74,5.0,12.0,90,0.02,,---,0.24,VWS V14.01,2013-03-22 03:40:00,
2013-03-21 22:45:00,35.6,33.0,30.25,ENE,63,4.0,10.0,90,0.02,,---,0.24,VWS V14.01,2013-03-22 03:45:00,
2013-03-21 22:50:00,35.6,33.0,30.25,East,89,5.0,10.0,90,0.02,,---,0.24,VWS V14.01,2013-03-22 03:50:00,
2013-03-21 22:55:00,35.5,32.9,30.25,ENE,77,5.0,11.0,90,0.02,,---,0.24,VWS V14.01,2013-03-22 03:55:00,
2013-03-21 23:00:00,35.5,32.9,30.25,ENE,68,4.0,11.0,90,0.04,,---,0.26,VWS V14.01,2013-03-22 04:00:00,
2013-03-21 23:05:00,35.3,32.7,30.25,East,82,10.0,11.0,90,0.04,,---,0.26,VWS V14.01,2013-03-22 04:05:00,
2013-03-21 23:10:00,35.3,32.7,30.25,East,86,5.0,7.0,90,0.03,,---,0.26,VWS V14.01,2013-03-22 04:10:00,
2013-03-21 23:15:00,35.3,32.7,30.24,ENE,71,7.0,11.0,90,0.03,,---,0.26,VWS V14.01,2013-03-22 04:15:00,
2013-03-21 23:20:00,35.3,32.7,30.24,ENE,74,8.0,12.0,90,0.04,,---,0.27,VWS V14.01,2013-03-22 04:20:00,
2013-03-21 23:25:00,35.3,32.7,30.24,NE,55,10.0,13.0,90,0.04,,---,0.27,VWS V14.01,2013-03-22 04:25:00,
2013-03-21 23:30:00,35.2,32.6,30.25,ENE,78,5.0,8.0,90,0.04,,---,0.27,VWS V14.01,2013-03-22 04:30:00,
2013-03-21 23:35:00,35.2,32.6,30.25,ENE,78,9.0,12.0,90,0.04,,---,0.27,VWS V14.01,2013-03-22 04:35:00,
2013-03-21 23:40:00,35.0,32.4,30.25,East,83,7.0,11.0,90,0.03,,---,0.27,VWS V14.01,2013-03-22 04:40:00,
2013-03-21 23:45:00,35.0,32.4,30.24,ENE,76,9.0,12.0,90,0.03,,---,0.27,VWS V14.01,2013-03-22 04:45:00,
2013-03-21 23:50:00,35.0,32.4,30.24,East,92,6.0,7.0,90,0.03,,---,0.27,VWS V14.01,2013-03-22 04:50:00,
2013-03-21 23:55:00,35.0,32.4,30.24,ENE,59,10.0,11.0,90,0.03,,---,0.27,VWS V14.01,2013-03-22 04:55:00,